SL-14 R/B, 23005

Orbit data source: Space-Track

SL-14 R/B, 23005 is space debris in LEO originally from a launch on Sat, 12 Feb 1994 UTC launched from the Plesetsk Missile And Space Complex (PKMTR). Debris objects in space refer to the collection of defunct objects orbiting the Earth. Examples of debris include non-operational satellites, rocket bodies, and fragments generated from explosions, collisions, or faulty payload assembly.

Loading next visibility...
Identifier
23005, 1994-011G
Orbit
LEO
Country
Flag of CISCIS
Related business
Manufacturer
Yuzhnoe
Mission
Spacecraft
Bus & Motor
S5M, Unknown motor
Mass
1,600 kg wet, 1,600 kg dry
Launch date (UTC)
1994-02-12 (32 years ago)
Launch vehicle
Unknown
Launch site
Plesetsk Missile And Space Complex (PKMTR)
Object type
Payload
Rocket body
Debris
Shape & HBR
Cyl, 1.4 m
Radar Cross Section
7.351 m², Large (>1 m²)

Expand to show TLE details & history
Last TLE update: 10 hours ago

TLE from 10 hours ago
0 SL-14 R/B
1 23005U 94011G   25259.21043476  .00000030  00000-0  11814-3 0  9996
2 23005  82.5743 235.4241 0041417   8.1076   3.3381 12.55220402447388
Epoch: 2025-09-16T05:03Z
TLE epoch observation values (Epoch: 2025-09-16T05:03:01.563Z)
Latitude
11.3325°
Longitude
165.75292°
Altitude
1,412.363 km
Speed
7.17 km/s
True Right ascension
15h 47m 39s
True Declination
11° 16' 19"
Sunlit
Object was in daylight at epoch
Visualization orbit readout
Latitude
Unknown
Longitude
Unknown
Altitude
Unknown
Speed
Unknown
Apparent Right ascension
Unknown
Apparent Declination
Unknown
Sunlit
N/A
Visualization observer readout
Local Sidereal Time
07:50:40
Azimuth
Unknown
Elevation
Unknown
Doppler factor
Unknown
Orbital elements
Apogee altitude
1,472.447 km
Perigee altitude
1,407.685 km
Semi-major axis
7,818.203 km
Eccentricity
0.00414
Inclination
82.5743°
RAAN
235.4241°
Arg. of periapsis
8.1076°
True anomaly
3.36588°
Mean anomaly
3.3381°
Eccentric anomaly
3.35197°
Mean motion
3.13966 °/min
Orbital period
114.66 mins
BSTAR
0.00011814
Loading maneuver chart data...
Computing Atmospheric mass density...
Loading historical data...
Loading historical data...
Loading historical data...
Loading historical data...
Loading historical data...
Loading historical data...
Loading historical data...

Documentation

Showing up to 5 results
|